Location: Cosy Dell
(34.2789°N, 117.4537°W)
Time: 12:13:46
(UTC+00:00)

Cosmos 2333 Rocket - Pass Details

Date: 14 July 2020
Orbit: 837 x 864 km, 70.8° (Epoch: 08 August)

Event Time Altitude Azimuth Distance (km) Brightness Sun altitude
Rises 03:27:08 0° 201° (SSW) 3,385 5.2 -5.2°
Reaches altitude 10° 03:29:33 10° 202° (SSW) 2,457 4.5 -5.6°
Maximum altitude 03:35:13 84° 291° (WNW) 859 2.4 -6.6°
Drops below altitude 10° 03:40:57 10° 20° (NNE) 2,490 4.8 -7.6°
Sets 03:43:25 0° 21° (NNE) 3,433 5.5 -8.1°
